Location: Unspecified
(41.1637°N, 24.2901°E)
Time: 23:43:01
(UTC+01:00)

ISS - Pass Details

Date: 10 November 2019
Orbit: 412 x 421 km, 51.6° (Epoch: 15 November)

Event Time Altitude Azimuth Distance (km) Brightness Sun altitude
Exits shadow 03:27:44 14° 59° (ENE) 1,295 -0.6 -29.6°
Drops below altitude 10° 03:28:28 10° 69° (ENE) 1,504 -0.1 -29.5°
Sets 03:30:56 0° 86° (E) 2,365 1.3 -29.0°
